Oxford, KS

7:08 PM CDT on July 29, 2016 (GMT -0500)
DeLaughter's House | | Change Station

Elev 1194 ft 37.28 °N, 97.18 °W | Updated 22 seconds ago

Scattered Clouds
Scattered Clouds
85.8 °F
Feels Like 88 °F
N
2.0
Wind Variable Wind from NW
Gusts 2.5 mph

Today
High -- | Low -- °F
--% Chance of Precip.
Yesterday
High -- | Low -- °F
Precip. -- in
Pressure 29.93 in
Visibility 10.0 miles
Clouds Scattered Clouds 6500 ft
Heat Index 88 °F
Dew Point 65 °F
Humidity 50%
Rainfall in
Snow Depth Not available.
6:31 AM 8:38 PM
Waning Crescent, 18% visible
METAR KWLD 292354Z AUTO 00000KT 10SM SCT065 30/19 A2996 RMK AO2 SLP133 T03000189 10311 20261 58008
Pressure 29.93 in
Visibility 10.0 miles
Clouds Scattered Clouds 6500 ft
Heat Index 88 °F
Dew Point 65 °F
Humidity 50%
Rainfall in
Snow Depth Not available.
6:31 AM 8:38 PM
Waning Crescent, 18% visible
METAR KWLD 292354Z AUTO 00000KT 10SM SCT065 30/19 A2996 RMK AO2 SLP133 T03000189 10311 20261 58008

10-Day Weather Forecast

Almanac

Astronomy

Jul. 29, 2016 Rise Set
Actual Time
Civil Twilight
Nautical Twilight
Astronomical Twilight
Moon
Length of Visible Light
Length of Day
Tomorrow will be .
, % of the Moon is Illuminated

Today's Extremes

State Highs State Lows

Community

WunderPhotos

Upload Photos

1,928,449 photos uploaded!

WunderBlog® & News

Nearby

Air Quality

  Air Quality AQ Index Pollutant
Not available.

Snow Depth

Station Depth Elevation

Earthquake Activity

City Distance Mag. Time & Date
Minimum magnitude displayed is 2.5.

Coastal Water Temperatures

Place Temperature

Stations

Nearby Weather Stations

Station Location Temp. Windchill Dew Point Humidity Wind Precip. Elev Updated Type
                   

Watches & Warnings

There are currently no watches in effect.